EN

Hourly Weather Kzyl-Tau

Today, 5 August, Thursday

Time Temperature Precipitation Wind Pressure Humidity
00:00 +18°C° 0 mm 2 mps 750 mmHg 85%
01:00 +17°C° 0 mm 2 mps 750 mmHg 82%
02:00 +17°C° 0 mm 2 mps 750 mmHg 79%
03:00 +18°C° 0 mm 2 mps 751 mmHg 76%
04:00 +18°C° 0 mm 2 mps 751 mmHg 72%
05:00 +18°C° 0 mm 3 mps 751 mmHg 69%
06:00 +19°C° 0 mm 4 mps 751 mmHg 66%
07:00 +20°C° 0 mm 4 mps 751 mmHg 60%
08:00 +22°C° 0 mm 5 mps 751 mmHg 54%
09:00 +23°C° 0 mm 5 mps 751 mmHg 50%
10:00 +25°C° 0 mm 5 mps 752 mmHg 46%
11:00 +25°C° 0 mm 5 mps 752 mmHg 42%
12:00 +26°C° 0 mm 6 mps 752 mmHg 38%
13:00 +26°C° 0 mm 5 mps 752 mmHg 38%
14:00 +26°C° 0 mm 5 mps 752 mmHg 38%
15:00 +26°C° 0 mm 4 mps 752 mmHg 39%
16:00 +25°C° 0 mm 4 mps 752 mmHg 42%
17:00 +24°C° 0 mm 3 mps 752 mmHg 46%
18:00 +24°C° 0 mm 2 mps 752 mmHg 49%
19:00 +21°C° 0 mm 2 mps 752 mmHg 52%
20:00 +20°C° 0 mm 2 mps 752 mmHg 55%
21:00 +18°C° 0 mm 2 mps 752 mmHg 58%
22:00 +18°C° 0 mm 2 mps 753 mmHg 59%
23:00 +17°C° 0 mm 2 mps 753 mmHg 60%

Tomorrow, 6 August, Friday

Time Temperature Precipitation Wind Pressure Humidity
00:00 +16°C° 0 mm 2 mps 753 mmHg 61%
01:00 +15°C° 0 mm 2 mps 753 mmHg 63%
02:00 +15°C° 0 mm 1 mps 753 mmHg 64%
03:00 +15°C° 0 mm 1 mps 753 mmHg 66%
04:00 +15°C° 0 mm 1 mps 753 mmHg 64%
05:00 +16°C° 0 mm 1 mps 753 mmHg 63%
06:00 +18°C° 0 mm 1 mps 754 mmHg 61%
07:00 +20°C° 0 mm 1 mps 754 mmHg 55%
08:00 +21°C° 0 mm 2 mps 754 mmHg 49%
09:00 +23°C° 0 mm 2 mps 754 mmHg 42%
10:00 +24°C° 0 mm 2 mps 754 mmHg 39%
11:00 +25°C° 0 mm 2 mps 754 mmHg 36%
12:00 +26°C° 0 mm 2 mps 754 mmHg 33%
13:00 +26°C° 0 mm 2 mps 753 mmHg 32%
14:00 +27°C° 0 mm 2 mps 753 mmHg 32%
15:00 +27°C° 0 mm 2 mps 753 mmHg 32%
16:00 +26°C° 0 mm 2 mps 753 mmHg 36%
17:00 +26°C° 0 mm 2 mps 753 mmHg 40%
18:00 +25°C° 0 mm 2 mps 753 mmHg 44%
19:00 +24°C° 0 mm 1 mps 753 mmHg 45%
20:00 +22°C° 0 mm 1 mps 753 mmHg 47%
21:00 +21°C° 0 mm 1 mps 753 mmHg 49%
22:00 +21°C° 0 mm 1 mps 753 mmHg 48%
23:00 +20°C° 0 mm 2 mps 753 mmHg 47%

Day after tomorrow, 7 August, Saturday

Time Temperature Precipitation Wind Pressure Humidity
00:00 +20°C° 0 mm 2 mps 753 mmHg 47%
01:00 +20°C° 0 mm 2 mps 753 mmHg 48%
02:00 +19°C° 0 mm 2 mps 753 mmHg 49%
03:00 +19°C° 0 mm 2 mps 753 mmHg 50%
04:00 +19°C° 0 mm 2 mps 753 mmHg 52%
05:00 +19°C° 0 mm 2 mps 753 mmHg 54%
06:00 +19°C° 0 mm 2 mps 753 mmHg 56%
07:00 +20°C° 0 mm 3 mps 754 mmHg 53%
08:00 +21°C° 0 mm 3 mps 754 mmHg 51%
09:00 +21°C° 0 mm 4 mps 754 mmHg 48%
10:00 +24°C° 0 mm 3 mps 754 mmHg 45%
11:00 +25°C° 0 mm 3 mps 754 mmHg 42%
12:00 +26°C° 0 mm 2 mps 753 mmHg 39%
13:00 +27°C° 0 mm 2 mps 753 mmHg 38%
14:00 +27°C° 0 mm 2 mps 753 mmHg 37%
15:00 +28°C° 0 mm 2 mps 753 mmHg 36%
16:00 +27°C° 0 mm 3 mps 753 mmHg 40%
17:00 +25°C° 0 mm 4 mps 753 mmHg 44%
18:00 +23°C° 0 mm 4 mps 753 mmHg 48%
19:00 +22°C° 0 mm 4 mps 753 mmHg 51%
20:00 +21°C° 0 mm 4 mps 753 mmHg 53%
21:00 +21°C° 0 mm 4 mps 753 mmHg 56%
22:00 +20°C° 0 mm 4 mps 753 mmHg 58%
23:00 +20°C° 0 mm 4 mps 754 mmHg 60%

8 August, Sunday

Time Temperature Precipitation Wind Pressure Humidity
00:00 +19°C° 0 mm 3 mps 754 mmHg 62%
01:00 +19°C° 0 mm 3 mps 754 mmHg 63%
02:00 +18°C° 0 mm 3 mps 754 mmHg 64%
03:00 +18°C° 0 mm 3 mps 754 mmHg 65%
04:00 +18°C° 0 mm 3 mps 754 mmHg 64%
05:00 +19°C° 0 mm 3 mps 754 mmHg 62%
06:00 +19°C° 0 mm 3 mps 754 mmHg 61%
07:00 +21°C° 0 mm 3 mps 754 mmHg 55%
08:00 +23°C° 0 mm 4 mps 754 mmHg 49%
09:00 +26°C° 0 mm 4 mps 754 mmHg 43%
10:00 +28°C° 0 mm 4 mps 754 mmHg 40%
11:00 +29°C° 0 mm 4 mps 754 mmHg 36%
12:00 +31°C° 0 mm 3 mps 754 mmHg 33%
13:00 +31°C° 0 mm 3 mps 754 mmHg 32%
14:00 +33°C° 0 mm 3 mps 754 mmHg 30%
15:00 +33°C° 0 mm 3 mps 754 mmHg 29%
16:00 +31°C° 0 mm 3 mps 754 mmHg 32%
17:00 +30°C° 0 mm 3 mps 754 mmHg 36%
18:00 +29°C° 0 mm 3 mps 753 mmHg 39%
19:00 +27°C° 0 mm 3 mps 754 mmHg 43%
20:00 +26°C° 0 mm 3 mps 754 mmHg 47%
21:00 +24°C° 0 mm 3 mps 754 mmHg 50%
22:00 +22°C° 0 mm 3 mps 754 mmHg 51%
23:00 +22°C° 0 mm 3 mps 754 mmHg 52%

9 August, Monday

Time Temperature Precipitation Wind Pressure Humidity
00:00 +23°C° 0 mm 2 mps 754 mmHg 53%
01:00 +23°C° 0 mm 2 mps 754 mmHg 53%
02:00 +23°C° 0 mm 2 mps 754 mmHg 52%
03:00 +21°C° 0 mm 2 mps 754 mmHg 52%
04:00 +23°C° 0 mm 2 mps 754 mmHg 53%
05:00 +23°C° 0 mm 2 mps 754 mmHg 54%
06:00 +23°C° 0 mm 1 mps 754 mmHg 54%
07:00 +25°C° 0 mm 1 mps 754 mmHg 50%
08:00 +26°C° 0 mm 1 mps 754 mmHg 45%
09:00 +28°C° 0 mm 1 mps 754 mmHg 41%
10:00 +29°C° 0 mm 1 mps 754 mmHg 38%
11:00 +30°C° 0 mm 1 mps 754 mmHg 36%
12:00 +32°C° 0 mm 1 mps 754 mmHg 33%
13:00 +32°C° 0 mm 1 mps 754 mmHg 32%
14:00 +33°C° 0 mm 1 mps 754 mmHg 30%
15:00 +33°C° 0 mm 1 mps 753 mmHg 29%
16:00 +32°C° 0 mm 1 mps 753 mmHg 34%
17:00 +31°C° 0 mm 1 mps 753 mmHg 39%
18:00 +29°C° 0 mm 1 mps 753 mmHg 44%
19:00 +28°C° 0.1 mm 1 mps 753 mmHg 49%
20:00 +26°C° 0.1 mm 1 mps 753 mmHg 53%
21:00 +24°C° 0.1 mm 1 mps 753 mmHg 57%
22:00 +24°C° 0 mm 1 mps 753 mmHg 60%
23:00 +23°C° 0 mm 2 mps 753 mmHg 62%

10 August, Tuesday

Time Temperature Precipitation Wind Pressure Humidity
00:00 +23°C° 0 mm 2 mps 753 mmHg 64%
01:00 +21°C° 0 mm 2 mps 753 mmHg 65%
02:00 +21°C° 0 mm 2 mps 753 mmHg 65%
03:00 +20°C° 0 mm 2 mps 753 mmHg 66%
04:00 +21°C° 0 mm 2 mps 753 mmHg 66%
05:00 +21°C° 0 mm 2 mps 753 mmHg 65%
06:00 +23°C° 0 mm 2 mps 753 mmHg 65%
07:00 +24°C° 0 mm 2 mps 753 mmHg 59%
08:00 +26°C° 0 mm 2 mps 753 mmHg 54%
09:00 +28°C° 0 mm 2 mps 753 mmHg 48%
10:00 +30°C° 0 mm 3 mps 753 mmHg 45%
11:00 +31°C° 0 mm 3 mps 753 mmHg 41%
12:00 +33°C° 0 mm 3 mps 753 mmHg 37%
13:00 +33°C° 0 mm 3 mps 753 mmHg 36%
14:00 +33°C° 0 mm 3 mps 752 mmHg 34%
15:00 +34°C° 0 mm 3 mps 752 mmHg 33%
16:00 +33°C° 0 mm 3 mps 752 mmHg 37%
17:00 +31°C° 0 mm 3 mps 752 mmHg 40%
18:00 +31°C° 0 mm 2 mps 752 mmHg 44%
19:00 +28°C° 0.1 mm 2 mps 752 mmHg 51%
20:00 +26°C° 0.1 mm 2 mps 752 mmHg 57%
21:00 +24°C° 0.1 mm 2 mps 752 mmHg 64%
22:00 +24°C° 0.1 mm 1 mps 753 mmHg 67%
23:00 +23°C° 0.1 mm 1 mps 753 mmHg 69%
Show more